Location: Abraham Lincoln Continuation High School
(33.9711°N, 117.3662°W)
Time: 13:14:02
(UTC+00:00)

ATLAS 3B R/B - Visible Passes

Search period start: 16 January 2021 00:00
Search period end: 26 January 2021 00:00
Orbit: 1013 x 1182 km, 63.8° (Epoch: 08 January)

Date Brightness Start Highest point End Pass type
(mag) Time Alt. Az. Time Alt. Az. Time Alt. Az.
16 Jan 2.7 02:17:14 10° NNW 02:24:18 73° ENE 02:31:36 10° SE visible
16 Jan 5.1 04:09:41 10° WNW 04:14:21 19° WSW 04:19:06 10° SSW visible
17 Jan 3.1 01:30:13 10° NNW 01:36:54 44° NE 01:43:47 10° SE visible
17 Jan 4.3 03:21:11 10° NW 03:27:24 34° WSW 03:33:49 10° S visible
18 Jan 3.4 02:33:26 10° NW 02:40:21 58° WSW 02:47:31 10° SSE visible
19 Jan 2.8 01:46:04 10° NNW 01:53:10 85° ENE 02:00:31 10° SSE visible
19 Jan 5.5 03:39:16 10° WNW 03:43:04 15° WSW 03:46:57 10° SW visible
20 Jan 4.8 02:50:20 10° NW 02:56:11 28° WSW 03:02:12 10° SSW visible
21 Jan 3.9 02:02:24 10° NW 02:09:10 49° WSW 02:16:10 10° S visible
21 Jan 6.2 14:03:39 10° ESE 14:05:37 11° ESE 14:07:36 10° E visible
22 Jan 5.9 03:09:18 10° W 03:11:48 12° WSW 03:14:20 10° SW visible
23 Jan 5.3 02:19:33 10° WNW 02:24:57 23° WSW 02:30:29 10° SSW visible
23 Jan 5.0 14:15:46 10° SSE 14:21:11 28° ESE 14:26:38 10° NE visible
24 Jan 4.4 01:31:24 10° NW 01:37:58 41° WSW 01:44:44 10° S visible
24 Jan 5.7 13:30:58 10° SE 13:34:20 15° ESE 13:37:42 10° ENE visible
